Regional Weather Roundup
Issued by NWS Cleveland, OH

Home | Current Version | Previous Version | Text Only | Print | Product List | Glossary Off
Versions: 1 2 3 4 5 6 7 8 9 10 11 12 13 14 15 16 17 18 19 20 21 22 23 24 25 26 27 28 29 30 31 32 33 34 35 36 37 38 39 40 41 42 43 44 45 46 47 48 49 50

197
ASUS41 KCLE 211600
RWRCLE
OHIO REGIONAL WEATHER ROUNDUP
NATIONAL WEATHER SERVICE WILMINGTON, OH
1200 PM EDT THU SEP 21 2017

NOTE: "FAIR" INDICATES FEW OR NO CLOUDS BELOW 12,000 FEET WITH NO
SIGNIFICANT WEATHER AND/OR OBSTRUCTIONS TO VISIBILITY.

OHZ001>008-015>018-024>027-034-035-043-044-211700-
   NORTHWEST OHIO

CITY           SKY/WX    TMP DP  RH WIND       PRES   REMARKS
DEFIANCE       FAIR      84  70  62 VRB3      30.08F
FINDLAY        FAIR      86  70  58 W8        30.08F HX  90
TOLEDO EXPRESS   N/A     84  74  71 W3        30.08S HX  91
TOLEDO EXEC    FAIR      84  71  65 W7        30.09F
LIMA           FAIR      83  72  69 VRB3      30.10S
$$

OHZ009>014-019>023-028>033-038-089-211700-
   NORTHEAST OHIO

CITY           SKY/WX    TMP DP  RH WIND       PRES   REMARKS
CLE-HOPKINS    FAIR      88  64  44 NW5       30.12S
CLE-LAKEFRONT  FAIR      80  66  62 NW6       30.09S
CUY CO. ARPT   SUNNY     82  64  54 VRB5      30.12S
LORAIN-ELYRIA  FAIR      82  64  54 VRB3      30.11S
ASHTABULA      FAIR      82  61  48 CALM      30.13S
AKRON-CANTON   FAIR      83  65  54 CALM      30.13F
WOOSTER        NOT AVBL
MANSFIELD      PTSUNNY   82  67  60 S5        30.13S
YOUNGSTOWN     FAIR      81  66  60 VRB3      30.13S
$$

OHZ042-051>053-060>062-070>072-077>081-211700-
  SOUTHWEST OHIO

CITY           SKY/WX    TMP DP  RH WIND       PRES   REMARKS
CINC-COVINGTON FAIR      84  73  69 W5        30.12S HX  90
CINC-LUNKEN    FAIR      83  73  72 CALM      30.11F
HAMILTON       FAIR      84  72  67 VRB3      30.11F
DAYTON         NOT AVBL
WRIGHT-PAT AFB FAIR      83  72  70 SW6       30.11F
DAYTON GENERAL FAIR      82  70  66 VRB5      30.11F
WILMINGTON     FAIR      83  72  69 NW3       30.12S
$$

OHZ036-037-039>041-045>050-054>059-063>069-073>076-082>088-211700-
  CENTRAL AND SOUTHEAST OHIO

CITY           SKY/WX    TMP DP  RH WIND       PRES   REMARKS
COLUMBUS       FAIR      84  69  60 CALM      30.11S
OSU AIRPORT    FAIR      82  71  69 CALM      30.11F
BOLTON FIELD   SUNNY     81  70  69 W8        30.13S
RICKENBACK AFB NOT AVBL
NEWARK         FAIR      81  67  62 CALM      30.12S
MARION         FAIR      83  67  58 S3        30.11F
LANCASTER      FAIR      81  69  67 CALM      30.13S
ZANESVILLE     FAIR      81  67  62 CALM      30.13S
NEW PHILLY     FAIR      83  65  54 CALM      30.13S
$$




USA.gov is the U.S. government's official web portal to all federal, state and local government web resources and services.